Aérodrome :
LOGIN :

S'inscrire | Disclaimer

   EN    FR    IT 

 










Légende :    VFR   VFR Marginal   IFR   IFR Intensif   IFR Très Intensif
Visi : 
Plafond : 
>= 8 km
>= 3000ft
5 à 8 km
1000 à 3000 ft
1500m à 5 km
500 à 1000 ft
800 à 1500m
200 à 500 ft
< 800m
< 200 ft
Symboles :   Orages  Brouillard  Fortes neiges  Fortes précipitations  Vent > 20 kt
SIGMETs :   Divers  Orages  Givrage  Turbulence  Onde Orograph.  Cendres Volcan.







- Altitude de l'aérodrome : 358 ft
- Voir les cartes d'approche


EGTC - Cranfield

DERNIER METAR :
  • 251520Z 35007KT 300V030 9999 FEW045 12/02 Q1032

METARs EXPIRÉS :
  • 251450Z 01010KT 330V030 9999 FEW045 11/03 Q1032
  • 251420Z 35010KT 300V010 9999 FEW044 12/02 Q1032
  • 251350Z 36009KT 300V030 9999 FEW044 11/02 Q1032
  • 251320Z 36011KT 330V030 9999 FEW044 11/02 Q1032
  • 251250Z 01012KT 330V030 9999 FEW044 10/02 Q1032

TAF TAF EGTC
Valide du 25 à 15h jusqu'au 25 à 19h UTC


251404Z 2515/2519 36009KT 9999 FEW040
Pas de NOTAMs connus pour ce terrain.



MET'MAP, la Météo Aéronautique d'un coup d'oeil ! - Copyright ORBIFLY Décembre 2007 - Disclaimer

ORBIFLY MET'MAP TEAM :

Programmation & Développement : Alexandra Zaïnal
Conception & Développement : Baudouin d'Aumeries
Co-Programmation & Développement : Marc-Olivier Méhu
Soutien technique & logistique : Manuel Goepfert

Contact : metmap@orbifly.com




SOURCES & CREDITS :

   NOAA